Simultaneous Nadir Overpasses (SNOs) Predictions

Prediction of SNOs between GOES-16 and METOP-C Satellite Orbit:

Table of predicted SNOs for the next 14.0 days since TLE Epoch: 1/22/2023
Index Date Time (GOES-16) GOES-16 Lat,Lon METOP-C Lat,Lon Distance(km) Time Diff (sec)
1 01/22/2023 14:14:34 -0.01, -75.20 -0.86, -71.46 426.69 80
2 01/24/2023 02:36:16 -0.01, -75.20 -0.19, -76.06 98.14 80
3 01/25/2023 02:12:58 -0.01, -75.21 0.93, -71.07 471.70 80
4 01/26/2023 14:34:29 0.01, -75.24 0.12, -75.62 44.27 80
5 01/29/2023 02:30:14 -0.01, -75.26 0.02, -75.25 4.12 80
6 01/31/2023 14:28:27 0.00, -75.32 -0.12, -74.82 57.90 80
7 02/02/2023 02:50:09 0.02, -75.34 -0.90, -79.42 465.51 80
8 02/03/2023 02:26:50 0.01, -75.36 0.24, -74.43 105.89 80
9 02/04/2023 14:45:42 -0.00, -75.40 0.78, -78.99 408.25 80
